ロニオス-パンスターズ彗星

462P/LONEOS-PanSTARRS (2000)

English version
Home page
Updated on July 27, 2023

---------------------------------------------------------------------

・ プロフィール

符号 462P/2000 OZ21
発見日 2000年7月29日
発見光度 18.4等
発見者 Lowell Observatory Near-Earth Object Search

・ 軌道要素

                    Epoch = 2000 Sept.13.0 TT
     T = 2000 Sept. 8.47012 TT        Peri. = 348.31385
     e = 0.5784070                    Node  = 340.12424 2000.0
     q = 2.0886709 AU                 Incl. =   5.60581
       a =  4.9542353 AU   n = 0.08937975   P =  11.03 years

・ 光度変化

        m1 = 12.0 + 5 logΔ + 20.0 log r

---------------------------------------------------------------------

軌道要素は、CBET 5166に掲載されたものです。
光度グラフはComet for Windowsで作成したものです。

---------------------------------------------------------------------

Copyright(C) Seiichi Yoshida (comet@aerith.net). All rights reserved.